• Em Portugal
  • Lista de países
  • Para 7 dias
  • Temperatura da água
  • Mapas de satélite
  • Mapa do tempo
  • Widgets de tempo
  • user-avatar
    Iniciar Sessão

    Previsão horária em Curitiba

    Hoje, 21 Outubro, Domingo

    Tempo Temperatura Precipitação Vento Pressão Humidade
    00:00 +12°C° 0 mm 1 m/s 683 mmHg 89%
    01:00 +12°C° 0 mm 1 m/s 683 mmHg 90%
    02:00 +12°C° 0 mm 1 m/s 682 mmHg 90%
    03:00 +12°C° 0 mm 1 m/s 682 mmHg 90%
    04:00 +12°C° 0 mm 1 m/s 682 mmHg 91%
    05:00 +12°C° 0 mm 1 m/s 682 mmHg 91%
    06:00 +12°C° 0 mm 1 m/s 682 mmHg 92%
    07:00 +13°C° 0.1 mm 1 m/s 683 mmHg 89%
    08:00 +14°C° 0.1 mm 1 m/s 683 mmHg 86%
    09:00 +14°C° 0.1 mm 2 m/s 684 mmHg 83%
    10:00 +15°C° 0.1 mm 2 m/s 684 mmHg 81%
    11:00 +16°C° 0.1 mm 1 m/s 684 mmHg 78%
    12:00 +18°C° 0.1 mm 1 m/s 684 mmHg 76%
    13:00 +18°C° 0 mm 1 m/s 683 mmHg 74%
    14:00 +19°C° 0 mm 1 m/s 683 mmHg 72%
    15:00 +18°C° 0 mm 2 m/s 683 mmHg 70%
    16:00 +18°C° 0 mm 2 m/s 683 mmHg 75%
    17:00 +18°C° 0 mm 1 m/s 682 mmHg 79%
    18:00 +16°C° 0 mm 1 m/s 682 mmHg 84%
    19:00 +15°C° 0 mm 1 m/s 682 mmHg 88%
    20:00 +14°C° 0 mm 1 m/s 683 mmHg 92%
    21:00 +13°C° 0 mm 1 m/s 683 mmHg 95%
    22:00 +13°C° 0 mm 1 m/s 683 mmHg 96%
    23:00 +13°C° 0 mm 1 m/s 683 mmHg 96%

    Amanhã, 22 Outubro, Segunda-feira

    Tempo Temperatura Precipitação Vento Pressão Humidade
    00:00 +12°C° 0 mm 1 m/s 683 mmHg 96%
    01:00 +12°C° 0 mm 1 m/s 682 mmHg 97%
    02:00 +11°C° 0 mm 0 m/s 682 mmHg 97%
    03:00 +11°C° 0 mm 0 m/s 681 mmHg 98%
    04:00 +11°C° 0 mm 0 m/s 681 mmHg 97%
    05:00 +11°C° 0 mm 0 m/s 682 mmHg 97%
    06:00 +11°C° 0 mm 0 m/s 682 mmHg 96%
    07:00 +14°C° 0 mm 1 m/s 683 mmHg 85%
    08:00 +18°C° 0 mm 1 m/s 683 mmHg 73%
    09:00 +20°C° 0 mm 1 m/s 684 mmHg 61%
    10:00 +23°C° 0 mm 1 m/s 684 mmHg 54%
    11:00 +25°C° 0 mm 1 m/s 684 mmHg 46%
    12:00 +27°C° 0 mm 1 m/s 684 mmHg 39%
    13:00 +28°C° 0 mm 1 m/s 683 mmHg 38%
    14:00 +28°C° 0 mm 1 m/s 683 mmHg 37%
    15:00 +28°C° 0 mm 1 m/s 682 mmHg 36%
    16:00 +26°C° 0 mm 1 m/s 682 mmHg 46%
    17:00 +24°C° 0 mm 1 m/s 681 mmHg 55%
    18:00 +22°C° 0 mm 1 m/s 681 mmHg 65%
    19:00 +21°C° 0 mm 1 m/s 681 mmHg 73%
    20:00 +19°C° 0 mm 1 m/s 681 mmHg 81%
    21:00 +16°C° 0 mm 1 m/s 681 mmHg 89%
    22:00 +16°C° 0 mm 1 m/s 681 mmHg 91%
    23:00 +16°C° 0 mm 1 m/s 681 mmHg 93%

    Depois de amanhã, 23 Outubro, Terça-feira

    Tempo Temperatura Precipitação Vento Pressão Humidade
    00:00 +15°C° 0 mm 1 m/s 681 mmHg 95%
    01:00 +15°C° 0 mm 1 m/s 681 mmHg 95%
    02:00 +15°C° 0 mm 1 m/s 680 mmHg 95%
    03:00 +15°C° 0 mm 1 m/s 680 mmHg 95%
    04:00 +15°C° 0 mm 1 m/s 680 mmHg 94%
    05:00 +15°C° 0 mm 1 m/s 680 mmHg 93%
    06:00 +14°C° 0 mm 0 m/s 680 mmHg 92%
    07:00 +19°C° 0 mm 1 m/s 681 mmHg 80%
    08:00 +22°C° 0 mm 1 m/s 682 mmHg 68%
    09:00 +26°C° 0 mm 1 m/s 683 mmHg 56%
    10:00 +26°C° 0.2 mm 1 m/s 683 mmHg 57%
    11:00 +27°C° 0.2 mm 1 m/s 683 mmHg 58%
    12:00 +27°C° 0.2 mm 1 m/s 682 mmHg 59%
    13:00 +26°C° 1.1 mm 1 m/s 682 mmHg 68%
    14:00 +25°C° 1.1 mm 1 m/s 681 mmHg 77%
    15:00 +23°C° 1.1 mm 1 m/s 680 mmHg 85%
    16:00 +22°C° 1.5 mm 1 m/s 680 mmHg 89%
    17:00 +21°C° 1.5 mm 1 m/s 681 mmHg 92%
    18:00 +19°C° 1.5 mm 2 m/s 681 mmHg 96%
    19:00 +18°C° 1.6 mm 2 m/s 681 mmHg 96%
    20:00 +17°C° 1.6 mm 2 m/s 682 mmHg 97%
    21:00 +17°C° 1.6 mm 2 m/s 682 mmHg 97%
    22:00 +17°C° 1.6 mm 2 m/s 682 mmHg 97%
    23:00 +18°C° 1.6 mm 1 m/s 682 mmHg 98%

    24 Outubro, Quarta-feira

    Tempo Temperatura Precipitação Vento Pressão Humidade
    00:00 +16°C° 1.6 mm 1 m/s 682 mmHg 98%
    01:00 +16°C° 1.4 mm 1 m/s 681 mmHg 98%
    02:00 +16°C° 1.4 mm 1 m/s 681 mmHg 98%
    03:00 +16°C° 1.4 mm 1 m/s 681 mmHg 98%
    04:00 +16°C° 1.7 mm 1 m/s 681 mmHg 98%
    05:00 +16°C° 1.7 mm 1 m/s 681 mmHg 98%
    06:00 +16°C° 1.7 mm 1 m/s 681 mmHg 98%
    07:00 +16°C° 2 mm 1 m/s 681 mmHg 98%
    08:00 +16°C° 2 mm 1 m/s 682 mmHg 98%
    09:00 +16°C° 2 mm 1 m/s 682 mmHg 98%
    10:00 +18°C° 2.2 mm 1 m/s 682 mmHg 97%
    11:00 +18°C° 2.2 mm 1 m/s 682 mmHg 97%
    12:00 +18°C° 2.2 mm 1 m/s 681 mmHg 96%
    13:00 +18°C° 1.1 mm 1 m/s 681 mmHg 96%
    14:00 +18°C° 1.1 mm 1 m/s 681 mmHg 96%
    15:00 +18°C° 1.1 mm 1 m/s 680 mmHg 96%
    16:00 +18°C° 0.4 mm 1 m/s 680 mmHg 97%
    17:00 +16°C° 0.4 mm 1 m/s 680 mmHg 97%
    18:00 +16°C° 0.4 mm 1 m/s 680 mmHg 97%
    19:00 +16°C° 0.1 mm 1 m/s 680 mmHg 97%
    20:00 +16°C° 0.1 mm 1 m/s 681 mmHg 98%
    21:00 +16°C° 0.1 mm 1 m/s 681 mmHg 98%
    22:00 +15°C° 0 mm 1 m/s 681 mmHg 98%
    23:00 +15°C° 0 mm 1 m/s 680 mmHg 98%

    25 Outubro, Quinta-feira

    Tempo Temperatura Precipitação Vento Pressão Humidade
    00:00 +15°C° 0 mm 1 m/s 680 mmHg 98%
    01:00 +14°C° 0 mm 0 m/s 680 mmHg 98%
    02:00 +14°C° 0 mm 0 m/s 679 mmHg 98%
    03:00 +14°C° 0 mm 0 m/s 679 mmHg 98%
    04:00 +14°C° 0 mm 0 m/s 679 mmHg 98%
    05:00 +14°C° 0 mm 0 m/s 679 mmHg 98%
    06:00 +14°C° 0 mm 0 m/s 679 mmHg 98%
    07:00 +16°C° 0 mm 0 m/s 679 mmHg 95%
    08:00 +19°C° 0 mm 1 m/s 680 mmHg 91%
    09:00 +20°C° 0 mm 1 m/s 680 mmHg 88%
    10:00 +21°C° 0.1 mm 1 m/s 680 mmHg 85%
    11:00 +22°C° 0.1 mm 1 m/s 680 mmHg 82%
    12:00 +22°C° 0.1 mm 1 m/s 680 mmHg 79%
    13:00 +23°C° 0.1 mm 1 m/s 679 mmHg 76%
    14:00 +24°C° 0.1 mm 1 m/s 679 mmHg 73%
    15:00 +25°C° 0.1 mm 1 m/s 678 mmHg 70%
    16:00 +24°C° 0 mm 1 m/s 678 mmHg 76%
    17:00 +23°C° 0 mm 1 m/s 678 mmHg 81%
    18:00 +22°C° 0 mm 1 m/s 678 mmHg 87%
    19:00 +21°C° 0 mm 1 m/s 678 mmHg 90%
    20:00 +20°C° 0 mm 1 m/s 678 mmHg 94%
    21:00 +19°C° 0 mm 1 m/s 678 mmHg 97%
    22:00 +17°C° 0 mm 0 m/s 678 mmHg 98%
    23:00 +16°C° 0 mm 0 m/s 678 mmHg 98%

    26 Outubro, Sexta-feira

    Tempo Temperatura Precipitação Vento Pressão Humidade
    00:00 +16°C° 0 mm 0 m/s 678 mmHg 99%
    01:00 +16°C° 0 mm 0 m/s 677 mmHg 99%
    02:00 +16°C° 0 mm 0 m/s 677 mmHg 99%
    03:00 +16°C° 0 mm 0 m/s 676 mmHg 98%
    04:00 +16°C° 0 mm 0 m/s 676 mmHg 98%
    05:00 +16°C° 0 mm 0 m/s 676 mmHg 98%
    06:00 +16°C° 0 mm 0 m/s 677 mmHg 98%
    07:00 +18°C° 0 mm 0 m/s 677 mmHg 90%
    08:00 +20°C° 0 mm 0 m/s 678 mmHg 81%
    09:00 +22°C° 0 mm 0 m/s 678 mmHg 73%
    10:00 +23°C° 0.2 mm 0 m/s 678 mmHg 69%
    11:00 +26°C° 0.2 mm 1 m/s 678 mmHg 65%
    12:00 +28°C° 0.2 mm 1 m/s 678 mmHg 61%
    13:00 +27°C° 1.7 mm 1 m/s 678 mmHg 69%
    14:00 +26°C° 1.7 mm 1 m/s 677 mmHg 76%
    15:00 +24°C° 1.7 mm 1 m/s 676 mmHg 84%
    16:00 +23°C° 0.8 mm 1 m/s 677 mmHg 87%
    17:00 +22°C° 0.8 mm 1 m/s 677 mmHg 91%
    18:00 +21°C° 0.8 mm 1 m/s 677 mmHg 95%
    19:00 +20°C° 0.2 mm 1 m/s 677 mmHg 96%
    20:00 +18°C° 0.2 mm 2 m/s 678 mmHg 97%
    21:00 +18°C° 0.2 mm 2 m/s 678 mmHg 97%
    22:00 +17°C° 0.1 mm 2 m/s 679 mmHg 97%
    23:00 +17°C° 0.1 mm 2 m/s 679 mmHg 97%
    Mostrar mais